Home > Weather > Canterbury > Past weeks

Flag for United Kingdom Past Weather in Canterbury, England, United Kingdom — Yesterday and Last 2 Weeks

Now
60 °F

Cool.


Feels Like: 60 °F
Forecast: 54 / 64 °F
Wind: 17 mph from Southwest

Location: Manston

Current Time: Jul 1, 2016 at 9:18:01 AM

Latest Report: Jul 1, 2016 at 8:00 AM


Visibility: 13 mi

Pressure: 29.82 "Hg

Humidity: 89%

Dew Point: 57 °F

Location of CanterburyLocation

Past Weather in Canterbury — Graph

°F

Canterbury Temperature Yesterday

Maximum temperature yesterday: 68 °F (at 5:00 PM)
Minimum temperature yesterday: 56 °F (at 4:00 AM)
Average temperature yesterday: 60 °F

High & Low Weather Summary for the Past Weeks

 TemperatureHumidityPressure
High76 °F (Jun 23, 3:00 PM)100% (Jun 18, 2:00 AM)30.26 "Hg (Jun 18, 2:00 AM)
Low48 °F (Jun 19, 2:00 AM)60% (Jun 16, 6:00 PM)29.57 "Hg (Jun 16, 5:00 PM)
Average60 °F87%29.97 "Hg
* Reported Jun 16 8:00 AM — Jul 1 8:00 AM, Canterbury, Weather by CustomWeather, © 2016

Note: Actual official high and low records may vary slightly from our data, if they occured in-between our weather recording intervals... More about our weather records

Advertising

Canterbury Weather History for the Previous 24 Hours

Scroll right to see more
 ConditionsComfort  
Time TempWeatherWind HumidityBarometerVisibility
8:00 AM
Fri, Jul 1
60 °FCool.17 mph89%29.82 "Hg12 mi
7:00 AM59 °FCool.16 mph92%29.83 "Hg9 mi
6:00 AM59 °FCool.17 mph90%29.81 "Hg9 mi
5:00 AM59 °FCool.21 mph87%29.81 "Hg12 mi
4:00 AM60 °FCool.21 mph86%29.80 "Hg13 mi
3:00 AM60 °FCool.20 mph88%29.80 "Hg9 mi
2:00 AM60 °FCool.16 mph90%29.81 "Hg10 mi
1:00 AM60 °FCool.17 mph89%29.82 "Hg10 mi
12:00 AM60 °FCool.15 mph89%29.83 "Hg11 mi
11:00 PM
Thu, Jun 30
60 °FCool.12 mph90%29.84 "Hg9 mi
10:00 PM59 °FCool.13 mph91%29.85 "Hg9 mi
9:00 PM61 °FCool.16 mph82%29.84 "Hg16 mi
8:00 PM62 °FMild.15 mph79%29.84 "Hg25 mi
7:00 PM66 °FMild.20 mph71%29.84 "Hg14 mi
6:00 PM64 °FMild.14 mph80%29.84 "Hg19 mi
5:00 PM68 °FMild.16 mph78%29.83 "Hg16 mi
4:00 PM65 °FMild.14 mph78%29.84 "Hg28 mi
3:00 PM67 °FMild.14 mph67%29.84 "Hg22 mi
2:00 PM67 °FMild.8 mph73%29.83 "Hg31 mi
1:00 PM63 °FMild.3 mph86%29.84 "Hg22 mi
12:00 PM60 °FCool.9 mph88%29.83 "Hg19 mi
11:00 AM59 °FCool.2 mph98%29.82 "Hg12 mi
10:00 AM58 °FRain showers. Cloudy.6 mph99%29.81 "Hg2 mi
9:00 AM57 °FCool.1 mph98%29.80 "Hg3 mi
Weather by CustomWeather, © 2016

See weather overviewHow to use our weather pages